Hourly Data Report for October 16, 2020

CARBERRY CS
MANITOBA
Current Station Operator: ECCC - MSC

49°54'20.900" N
99°21'26.800" W
383.50 m
5010547
71170
WZE

Download Data

Hourly Data (October 2020)
Hourly Data Report for October 16, 2020
TIME
LST
Temp Definition
°C
Dew Point Definition
°C
Rel Hum Definition
%
Precip. Amount Definition
mm

Wind Dir Definition
10's deg

Wind Spd Definition
km/h
Visibility Definition
km
Stn Press Definition
kPa
Hmdx Definition


Wind Chill Definition


Weather Definition


00:00 -5.0 -11.1 63 0.0 28 18   96.90   -11 LegendNANA
01:00 -5.4 -11.2 64 0.0 27 18   96.90   -12 LegendNANA
02:00 -6.1 -11.5 66 0.0 27 16   96.90   -12 LegendNANA
03:00 -6.0 -11.8 63 0.0 28 21   96.86   -13 LegendNANA
04:00 -5.9 -12.0 62 0.0 28 25   96.86   -13 LegendNANA
05:00 -5.9 -11.9 62 0.0 28 24   96.87   -13 LegendNANA
06:00 -6.4 -12.3 63 0.0 28 22   96.89   -14 LegendNANA
07:00 -7.9 -12.4 70 0.0 27 18   96.86   -15 LegendNANA
08:00 -7.8 -12.5 69 0.0 25 14   96.82   -14 LegendNANA
09:00 -5.4 -12.1 59 0.0 26 21   96.81   -12 LegendNANA
10:00 -3.0 -11.5 52 0.0 27 21   96.79   -9 LegendNANA
11:00 -1.2 -11.8 44 0.0 27 24   96.67   -7 LegendNANA
12:00 0.1 -12.4 38 0.0 28 26   96.61     LegendNANA
13:00 1.4 -13.8 31 0.0 27 31   96.51     LegendNANA
14:00 1.7 -14.3 29 0.0 27 29   96.43     LegendNANA
15:00 2.6 -15.7 25 0.0 27 32   96.37     LegendNANA
16:00 1.5 -14.8 28 0.0 28 30   96.37     LegendNANA
17:00 2.2 -14.4 28 0.0 30 17   96.32     LegendNANA
18:00 -0.4 -14.3 34 0.0 29 11   96.32   -4 LegendNANA
19:00 -2.4 -13.8 41 0.0 0 1   96.31   -3 LegendNANA
20:00 -3.5 -13.0 48 0.0 22 4   96.32   -5 LegendNANA
21:00 -4.7 -13.4 50 0.0 23 1   96.32   -5 LegendNANA
22:00 -6.1 -13.9 54 0.0 23 4   96.34   -8 LegendNANA
23:00 -6.7 -14.7 53 0.0 23 8   96.35   -11 LegendNANA

Notes on Data Quality.

Legend

  • E = Estimated
  • M = Missing
  • NA = Not Available*
  • [empty] = Indicates an unobserved value
Date modified: